| time (UTC) | temp F | wind direction | speed MPH | gust MPH | rain 1hr in | rain 24hr in | rain mn in | humidity % | barometer mb |
| 20260507063941 | 50 | 22 | 4.0 | 7.0 | 0.00 | 0.01 | 0.00 | 86 | 1014.5 |
| 20260507062940 | 50 | 328 | 4.0 | 7.0 | 0.00 | 0.01 | 0.00 | 87 | 1014.4 |
| 20260507061940 | 49 | 342 | 5.0 | 7.0 | 0.00 | 0.01 | 0.00 | 88 | 1014.4 |
| 20260507055940 | 48 | 328 | 4.0 | 7.0 | 0.00 | 0.01 | 0.00 | 89 | 1014.0 |
| 20260507054941 | 48 | 357 | 4.0 | 7.0 | 0.00 | 0.01 | 0.00 | 89 | 1014.0 |
| 20260507053940 | 48 | 3 | 4.0 | 7.0 | 0.00 | 0.01 | 0.00 | 89 | 1014.0 |
| 20260507052940 | 47 | 7 | 5.0 | 9.0 | 0.00 | 0.01 | 0.00 | 90 | 1013.9 |
| 20260507051940 | 47 | 4 | 4.0 | 7.0 | 0.00 | 0.01 | 0.00 | 91 | 1013.9 |
| 20260507050940 | 47 | 8 | 4.0 | 7.0 | 0.00 | 0.01 | 0.00 | 92 | 1013.8 |
| 20260507045941 | 47 | 341 | 4.0 | 6.0 | 0.00 | 0.01 | 0.00 | 93 | 1013.5 |
| 20260507043940 | 47 | 327 | 3.0 | 5.0 | 0.00 | 0.01 | 0.00 | 93 | 1013.5 |
| 20260507042941 | 47 | 344 | 3.0 | 5.0 | 0.00 | 0.02 | 0.00 | 93 | 1013.4 |
| 20260507041940 | 47 | 346 | 3.0 | 5.0 | 0.00 | 0.02 | 0.00 | 93 | 1013.4 |
| 20260507040940 | 47 | 305 | 3.0 | 5.0 | 0.00 | 0.02 | 0.00 | 93 | 1013.1 |
| 20260507035940 | 47 | 321 | 2.0 | 3.0 | 0.00 | 0.02 | 0.00 | 93 | 1013.0 |
| 20260507034940 | 47 | 311 | 2.0 | 3.0 | 0.00 | 0.02 | 0.00 | 93 | 1013.0 |
| 20260507032941 | 47 | 290 | 1.0 | 2.0 | 0.00 | 0.02 | 0.00 | 92 | 1012.9 |
| 20260507031941 | 47 | 291 | 1.0 | 3.0 | 0.00 | 0.02 | 0.00 | 92 | 1012.9 |
| 20260507030940 | 47 | 281 | 0.0 | 3.0 | 0.00 | 0.02 | 0.00 | 92 | 1012.9 |
| 20260507025941 | 47 | 288 | 0.0 | 1.0 | 0.00 | 0.02 | 0.00 | 92 | 1012.9 |
| 20260507024941 | 47 | 288 | 1.0 | 3.0 | 0.00 | 0.02 | 0.00 | 92 | 1012.9 |
| 20260507023940 | 48 | 282 | 1.0 | 3.0 | 0.00 | 0.02 | 0.00 | 91 | 1012.8 |
| 20260507022941 | 48 | 276 | 0.0 | 2.0 | 0.00 | 0.02 | 0.00 | 91 | 1012.6 |
| 20260507020941 | 48 | 288 | 2.0 | 4.0 | 0.00 | 0.02 | 0.00 | 90 | 1012.5 |
| 20260507014940 | 49 | 338 | 3.0 | 5.0 | 0.00 | 0.03 | 0.00 | 89 | 1012.4 |
| 20260507013941 | 49 | 326 | 4.0 | 6.0 | 0.00 | 0.03 | 0.00 | 89 | 1012.4 |
| 20260507012941 | 49 | 297 | 4.0 | 6.0 | 0.00 | 0.04 | 0.00 | 89 | 1012.4 |
| 20260507010941 | 49 | 268 | 2.0 | 3.0 | 0.00 | 0.05 | 0.00 | 88 | 1012.3 |
| 20260507005941 | 49 | 258 | 1.0 | 3.0 | 0.00 | 0.05 | 0.00 | 88 | 1012.2 |
| 20260507004940 | 49 | 256 | 2.0 | 4.0 | 0.00 | 0.06 | 0.00 | 88 | 1012.2 |
| 20260507002942 | 49 | 328 | 2.0 | 3.0 | 0.00 | 0.06 | 0.00 | 89 | 1012.0 |
| 20260507001941 | 49 | 303 | 3.0 | 4.0 | 0.00 | 0.06 | 0.00 | 89 | 1012.0 |
| 20260507000941 | 49 | 285 | 2.0 | 4.0 | 0.00 | 0.06 | 0.00 | 89 | 1011.9 |
| 20260506234942 | 49 | 273 | 1.0 | 3.0 | 0.00 | 0.06 | 0.00 | 89 | 1012.0 |
| 20260506233941 | 49 | 270 | 2.0 | 3.0 | 0.00 | 0.06 | 0.00 | 88 | 1011.9 |
| 20260506232941 | 49 | 259 | 2.0 | 3.0 | 0.00 | 0.06 | 0.00 | 88 | 1011.9 |
| 20260506231941 | 49 | 252 | 1.0 | 2.0 | 0.00 | 0.06 | 0.00 | 88 | 1011.9 |
| 20260506230940 | 49 | 265 | 1.0 | 2.0 | 0.00 | 0.06 | 0.00 | 89 | 1011.8 |
| 20260506225941 | 49 | 283 | 0.0 | 1.0 | 0.00 | 0.06 | 0.00 | 88 | 1011.8 |
| 20260506224941 | 49 | 285 | 1.0 | 3.0 | 0.00 | 0.06 | 0.00 | 88 | 1011.8 |
| 20260506223941 | 49 | 287 | 2.0 | 3.0 | 0.00 | 0.06 | 0.00 | 88 | 1011.7 |
| 20260506222941 | 49 | 298 | 2.0 | 4.0 | 0.00 | 0.06 | 0.00 | 88 | 1011.6 |
| 20260506221941 | 49 | 6 | 1.0 | 3.0 | 0.00 | 0.06 | 0.00 | 88 | 1011.6 |
| 20260506220941 | 49 | 6 | 1.0 | 3.0 | 0.00 | 0.06 | 0.00 | 87 | 1011.5 |
| 20260506215946 | 49 | 351 | 3.0 | 4.0 | 0.00 | 0.06 | 0.00 | 88 | 1011.4 |
| 20260506212942 | 50 | 293 | 4.0 | 5.0 | 0.00 | 0.06 | 0.06 | 87 | 1011.3 |
| 20260506211942 | 50 | 9 | 2.0 | 4.0 | 0.00 | 0.06 | 0.06 | 86 | 1011.3 |
| 20260506210942 | 50 | 13 | 2.0 | 4.0 | 0.00 | 0.06 | 0.06 | 84 | 1011.3 |
| 20260506205942 | 50 | 21 | 2.0 | 5.0 | 0.00 | 0.06 | 0.06 | 84 | 1011.3 |
| 20260506204941 | 50 | 19 | 2.0 | 4.0 | 0.00 | 0.06 | 0.06 | 84 | 1011.3 |
| 20260506203942 | 50 | 25 | 3.0 | 5.0 | 0.00 | 0.06 | 0.06 | 85 | 1011.2 |
| 20260506202942 | 50 | 23 | 2.0 | 5.0 | 0.00 | 0.06 | 0.06 | 85 | 1011.1 |
| 20260506201942 | 50 | 23 | 2.0 | 5.0 | 0.00 | 0.06 | 0.06 | 85 | 1011.1 |
| 20260506195942 | 50 | 3 | 2.0 | 4.0 | 0.00 | 0.06 | 0.06 | 86 | 1010.8 |
| 20260506194941 | 51 | 17 | 2.0 | 4.0 | 0.00 | 0.06 | 0.06 | 87 | 1010.8 |
| 20260506193941 | 51 | 24 | 1.0 | 4.0 | 0.00 | 0.06 | 0.06 | 87 | 1010.8 |
| 20260506192941 | 51 | 26 | 0.0 | 3.0 | 0.00 | 0.06 | 0.06 | 86 | 1010.6 |
| 20260506191942 | 51 | 25 | 2.0 | 4.0 | 0.00 | 0.06 | 0.06 | 85 | 1010.6 |
| 20260506190942 | 51 | 32 | 1.0 | 3.0 | 0.00 | 0.06 | 0.06 | 85 | 1010.3 |
| 20260506185942 | 51 | 37 | 2.0 | 4.0 | 0.00 | 0.06 | 0.06 | 85 | 1010.3 |
| 20260506184942 | 51 | 29 | 2.0 | 5.0 | 0.00 | 0.06 | 0.06 | 85 | 1010.3 |
| 20260506183943 | 51 | 38 | 4.0 | 8.0 | 0.00 | 0.06 | 0.06 | 84 | 1010.2 |
| 20260506181941 | 51 | 30 | 7.0 | 12.0 | 0.00 | 0.06 | 0.06 | 84 | 1009.9 |
| 20260506180941 | 51 | 26 | 4.0 | 7.0 | 0.00 | 0.06 | 0.06 | 85 | 1009.8 |
| 20260506175942 | 51 | 32 | 4.0 | 7.0 | 0.00 | 0.06 | 0.06 | 86 | 1009.7 |
| 20260506174942 | 51 | 40 | 4.0 | 7.0 | 0.00 | 0.06 | 0.06 | 86 | 1009.7 |
| 20260506173942 | 51 | 43 | 6.0 | 9.0 | 0.00 | 0.06 | 0.06 | 85 | 1009.4 |
| 20260506172942 | 51 | 45 | 6.0 | 9.0 | 0.00 | 0.06 | 0.06 | 86 | 1009.3 |
| 20260506171941 | 51 | 36 | 8.0 | 12.0 | 0.00 | 0.06 | 0.06 | 85 | 1009.3 |
| 20260506164942 | 51 | 32 | 6.0 | 10.0 | 0.00 | 0.06 | 0.06 | 85 | 1009.0 |
| 20260506163941 | 51 | 23 | 6.0 | 11.0 | 0.00 | 0.06 | 0.06 | 84 | 1009.0 |
| 20260506162942 | 51 | 27 | 7.0 | 13.0 | 0.00 | 0.06 | 0.06 | 83 | 1009.1 |
| 20260506161942 | 52 | 22 | 7.0 | 14.0 | 0.00 | 0.06 | 0.06 | 82 | 1009.1 |
| 20260506160942 | 52 | 30 | 8.0 | 14.0 | 0.00 | 0.06 | 0.06 | 82 | 1009.0 |
| 20260506155942 | 52 | 26 | 7.0 | 12.0 | 0.00 | 0.06 | 0.06 | 81 | 1008.9 |
| 20260506154943 | 52 | 12 | 7.0 | 11.0 | 0.00 | 0.06 | 0.06 | 79 | 1008.9 |
| 20260506153944 | 53 | 11 | 7.0 | 13.0 | 0.00 | 0.06 | 0.06 | 78 | 1008.8 |
| 20260506152942 | 53 | 357 | 8.0 | 13.0 | 0.00 | 0.06 | 0.06 | 78 | 1008.7 |
| 20260506151942 | 53 | 345 | 9.0 | 15.0 | 0.00 | 0.06 | 0.06 | 78 | 1008.7 |
| 20260506150942 | 53 | 10 | 6.0 | 11.0 | 0.00 | 0.06 | 0.06 | 77 | 1008.7 |
| 20260506145943 | 54 | 355 | 8.0 | 16.0 | 0.00 | 0.06 | 0.06 | 77 | 1008.7 |
| 20260506144942 | 54 | 16 | 7.0 | 12.0 | 0.00 | 0.06 | 0.06 | 75 | 1008.7 |
| 20260506143942 | 54 | 328 | 7.0 | 12.0 | 0.00 | 0.06 | 0.06 | 75 | 1008.7 |
| 20260506142942 | 54 | 12 | 6.0 | 9.0 | 0.00 | 0.06 | 0.06 | 75 | 1008.6 |
| 20260506141943 | 54 | 295 | 7.0 | 10.0 | 0.00 | 0.06 | 0.06 | 75 | 1008.6 |
| 20260506140942 | 54 | 357 | 7.0 | 12.0 | 0.00 | 0.06 | 0.06 | 74 | 1008.6 |
| 20260506135942 | 54 | 356 | 7.0 | 11.0 | 0.00 | 0.06 | 0.06 | 77 | 1008.6 |
| 20260506134942 | 53 | 41 | 7.0 | 13.0 | 0.00 | 0.06 | 0.06 | 75 | 1008.6 |
| 20260506133942 | 53 | 354 | 8.0 | 16.0 | 0.00 | 0.06 | 0.06 | 75 | 1008.6 |
| 20260506131942 | 53 | 25 | 7.0 | 12.0 | 0.00 | 0.06 | 0.06 | 75 | 1008.5 |
| 20260506130943 | 53 | 21 | 7.0 | 13.0 | 0.00 | 0.06 | 0.06 | 77 | 1008.5 |
| 20260506125943 | 53 | 27 | 8.0 | 16.0 | 0.00 | 0.06 | 0.06 | 77 | 1008.3 |
| 20260506124942 | 53 | 22 | 7.0 | 11.0 | 0.00 | 0.06 | 0.06 | 79 | 1008.3 |
| 20260506123944 | 53 | 30 | 8.0 | 14.0 | 0.00 | 0.06 | 0.06 | 77 | 1008.3 |
| 20260506122942 | 53 | 25 | 8.0 | 16.0 | 0.00 | 0.06 | 0.06 | 77 | 1008.2 |
| 20260506121943 | 53 | 19 | 8.0 | 12.0 | 0.00 | 0.06 | 0.06 | 77 | 1008.2 |
| 20260506120943 | 54 | 13 | 7.0 | 14.0 | 0.00 | 0.06 | 0.06 | 76 | 1008.1 |
| 20260506115943 | 54 | 14 | 6.0 | 12.0 | 0.00 | 0.06 | 0.06 | 77 | 1008.1 |
| 20260506114943 | 54 | 17 | 7.0 | 12.0 | 0.00 | 0.06 | 0.06 | 77 | 1008.1 |
| 20260506113943 | 54 | 359 | 8.0 | 14.0 | 0.00 | 0.06 | 0.06 | 80 | 1008.0 |
| 20260506112943 | 54 | 33 | 7.0 | 13.0 | 0.00 | 0.06 | 0.06 | 80 | 1008.0 |
| 20260506111942 | 54 | 42 | 10.0 | 13.0 | 0.00 | 0.06 | 0.06 | 82 | 1008.0 |
| 20260506105943 | 54 | 33 | 8.0 | 13.0 | 0.00 | 0.06 | 0.06 | 83 | 1008.1 |
| 20260506104943 | 53 | 32 | 9.0 | 14.0 | 0.00 | 0.06 | 0.06 | 84 | 1008.1 |
| 20260506103943 | 54 | 27 | 7.0 | 13.0 | 0.00 | 0.06 | 0.06 | 86 | 1007.8 |
| 20260506102943 | 53 | 29 | 8.0 | 12.0 | 0.00 | 0.06 | 0.06 | 86 | 1007.7 |
| 20260506101943 | 53 | 37 | 9.0 | 14.0 | 0.00 | 0.06 | 0.06 | 86 | 1007.7 |
| 20260506100943 | 53 | 31 | 7.0 | 12.0 | 0.00 | 0.06 | 0.06 | 87 | 1007.7 |
| 20260506095943 | 53 | 31 | 6.0 | 12.0 | 0.00 | 0.06 | 0.06 | 86 | 1007.6 |
| 20260506094943 | 53 | 12 | 7.0 | 13.0 | 0.01 | 0.06 | 0.06 | 86 | 1007.6 |
| 20260506092944 | 53 | 357 | 6.0 | 11.0 | 0.01 | 0.06 | 0.06 | 88 | 1007.4 |
| 20260506091943 | 53 | 356 | 7.0 | 13.0 | 0.01 | 0.06 | 0.06 | 88 | 1007.4 |
| 20260506090943 | 52 | 349 | 9.0 | 17.0 | 0.01 | 0.06 | 0.06 | 88 | 1007.3 |
| 20260506085943 | 52 | 351 | 7.0 | 11.0 | 0.01 | 0.06 | 0.06 | 91 | 1007.2 |
| 20260506084944 | 52 | 27 | 6.0 | 10.0 | 0.00 | 0.06 | 0.05 | 91 | 1007.2 |
| 20260506083943 | 51 | 8 | 7.0 | 10.0 | 0.00 | 0.06 | 0.05 | 92 | 1007.1 |
| 20260506082943 | 51 | 358 | 7.0 | 11.0 | 0.00 | 0.06 | 0.05 | 92 | 1007.1 |
| 20260506080943 | 51 | 344 | 6.0 | 10.0 | 0.00 | 0.06 | 0.05 | 94 | 1007.1 |
| 20260506072943 | 50 | 308 | 7.0 | 11.0 | 0.00 | 0.06 | 0.05 | 96 | 1007.1 |
| 20260506071943 | 49 | 307 | 7.0 | 10.0 | 0.00 | 0.07 | 0.05 | 96 | 1007.1 |
| 20260506070943 | 49 | 304 | 6.0 | 10.0 | 0.00 | 0.07 | 0.05 | 96 | 1007.1 |